Regional Weather Roundup
Issued by NWS Boston, MA

Home | Current Version | Previous Version | Text Only | Print | Product List | Glossary On
Versions: 1 2 3 4 5 6 7 8 9 10 11 12 13 14 15 16 17 18 19 20 21 22 23 24 25 26 27 28 29 30 31 32 33 34 35 36 37 38 39 40 41 42 43 44 45 46 47 48 49 50
951
ASUS41 KBOX 082110
RWRBOX

REGIONAL WEATHER ROUNDUP
NATIONAL WEATHER SERVICE TAUNTON MA
400 PM EST MON FEB 08 2016

NOTE:  "FAIR" INDICATES FEW OR NO CLOUDS BELOW 12,000 FEET WITH NO
SIGNIFICANT WEATHER AND/OR OBSTRUCTIONS TO VISIBILITY.  THE FOLLOWING
OBSERVATION LOCATIONS DO NOT REPORT PRESENT WEATHER...PROVINCETOWN...
SMITHFIELD...BLOCK ISLAND...KEENE...AND OXFORD.

MAZALL-082200-
EASTERN MASSACHUSETTS

CITY           SKY/WX    TMP DP  RH WIND       PRES   REMARKS
BOSTON         SNOW      20  15  81 N18G28    29.73R VSB 1/2 WCI   5
BEVERLY        LGT SNOW  20  14  77 N16G25    29.72S VSB 3/4 WCI   6
LAWRENCE       LGT SNOW  20  15  81 N20       29.76S WCI   4
BEDFORD        FLURRIES  19  16  88 N15G24    29.73S WCI   5
BLUE HILL        N/A     17  15  92 N20G28    29.65R WCI   1
NORWOOD        LGT SNOW  21  15  78 N13G22    29.72R FOG     WCI   9
MARSHFIELD     SNOW      30  28  93 N21G36    29.68S WCI  17
PLYMOUTH       LGT SNOW  27  24  89 N24G32    29.64R VSB 1   WCI  12
TAUNTON        LGT SNOW  22  16  78 N14G22    29.67R VSB 1   WCI   9
NEW BEDFORD    LGT SNOW  23  19  85 N12G24    29.63R FOG     WCI  12
$$

MAZALL-082200-
CAPE COD AND THE ISLANDS

CITY           SKY/WX    TMP DP  RH WIND       PRES   REMARKS
FALMOUTH       SNOW      30  27  86 N17G31    29.58R VSB<1/4 WCI  18
HYANNIS        LGT SNOW  30  29  96 N25G46    29.53R VSB 1   WCI  16
CHATHAM        LGT SNOW  31  30  96 N13G35    29.55R VSB 3/4 WCI  21
PROVINCETOWN   LGT SNOW  31  29  92 N29G39    29.61R FOG     WCI  16
NANTUCKET      LGT SNOW  33  31  92 N32G44    29.52R VSB 3/4 WCI  19
MARTHAS VNYRD  LGT SNOW  30  26  85 N18G37    29.57R FOG     WCI  18
$$

MAZALL-082200-
CENTRAL AND WESTERN MASSACHUSETTS

CITY           SKY/WX    TMP DP  RH WIND       PRES   REMARKS
WORCESTER      LGT SNOW  20  14  77 N14G24    29.67R WCI   7
FITCHBURG      LGT SNOW  21  15  78 N10       29.75S VSB 1   WCI  10
ORANGE         LGT SNOW  21  17  84 N9        29.75S VSB 1   WCI  11
SPRINGFIELD    LGT SNOW  23  19  84 N10       29.74S VSB 1   WCI  12
WESTFIELD      LGT SNOW  23  19  85 N10       29.75S VSB 3/4 WCI  12
NORTH ADAMS    LGT SNOW  22  18  85 W5        29.77R VSB 3/4 WCI  16
PITTSFIELD     SNOW      22  19  89 NE3       29.71R VSB 1/4
$$

RIZALL-082200-
RHODE ISLAND

CITY           SKY/WX    TMP DP  RH WIND       PRES   REMARKS
PROVIDENCE     LGT SNOW  21  16  81 N21G33    29.69R VSB 1   WCI   5
NEWPORT        FOG       21  17  84 N20G29    29.65R VSB 1   WCI   6
BLOCK ISLAND   CLOUDY    25  19  80 N16G28    29.65R WCI  12
SMITHFIELD     CLOUDY    19  16  86 N13G24    29.67R WCI   7
WESTERLY       LGT SNOW  24  19  81 N13G21    29.70R WCI  12
$$

CTZALL-082200-
CONNECTICUT

CITY           SKY/WX    TMP DP  RH WIND       PRES   REMARKS
BRADLEY INTL   LGT SNOW  23  19  85 N13       29.74S VSB 3/4 WCI  11
HARTFORD       LGT SNOW  25  19  78 N15G22    29.76R WCI  13
BRIDGEPORT     LGT SNOW  27  23  85 N12       29.75R VSB 1   WCI  17
DANBURY        LGT SNOW  26  20  77 N8        29.75R VSB 3/4 WCI  18
GROTON         CLOUDY    24  20  84 N12       29.71R FOG     WCI  13
NEW HAVEN      LGT SNOW  25  21  85 N17       29.74R FOG     WCI  12
CHESTER        FLURRIES  25  19  80 N14G20    29.71R WCI  13
MERIDEN        LGT SNOW  26  19  74 N10       29.75S WCI  16
WILLIMANTIC    LGT SNOW  25  17  72 N8        29.72R WCI  16
OXFORD         LGT SNOW  25  12  58 N12       29.72R VSB 3/4 WCI  14
$$

MEZ002-015-021-024-NHZ003-005-008-011-012-014-VTZ005-008-082200-
NORTHERN NEW ENGLAND

CITY           SKY/WX    TMP DP  RH WIND       PRES   REMARKS
PORTLAND ME    SNOW      19  15  84 N20G26    29.79F VSB 1/2 WCI   3
BANGOR ME      CLOUDY    20  11  68 NE18G30   29.84F WCI   5
CONCORD NH     LGT SNOW  20  14  77 N14       29.78F VSB 1   WCI   7
MANCHESTER NH  LGT SNOW  21  16  81 N16       29.76S VSB 1   WCI   7
NASHUA NH      LGT SNOW  21  18  86 N8G18     29.77S FOG     WCI  12
PORTSMOUTH NH  LGT SNOW  20  15  82 N14G23    29.75S VSB 3/4 WCI   6
JAFFREY NH     LGT SNOW  19  13  77 VRB6      29.71S WCI  11
KEENE NH       CLOUDY    21  12  68 N7        29.77R WCI  13
BURLINGTON VT  CLOUDY    27   9  46 N10       29.83S WCI  17
MT. WASHINGTON NOT AVBL
$$

NYZ052-076-082200-
EASTERN NEW YORK

CITY           SKY/WX    TMP DP  RH WIND       PRES   REMARKS
ALBANY         CLOUDY    31  -2  24 VRB3      29.79R
NEW YORK CITY  CLOUDY    33  24  69 NE15      29.73S WCI  23
$$

ANZALL-082200-
MARINE OBSERVATIONS

STATION/POSITION TIME  TEMP    WIND        PRES    VSBY  WAVE
                       AIR SEA DIR/SP/G                  HT/PER
                 (UTC) (F)     (DEG/KT/KT) (MB)    (MI)  (FT/S)
BOSTON BUOY      2050   28 41   20/ 29/ 37 1004.4R        15/10
BUZZARDS BAY     2000          350/ 29/ 32 1002.2R
NANTUCKET SOUND  2050   34 42  360/ 27/ 35  999.4R         6/ 5
MASS BAY-STELLWA 2004   27 43   10/ 29/ 37   N/A    1 7/8 16/11
ISLE OF SHOALS   2100   22      10/ 35/ 39 1005.7S
S OF BLOCK IS    NOT AVBL
$$

......................KEY.........................
  SKY/WX - SKY CONDITION/PRESENT WEATHER
  TMP    - TEMPERATURE IN FAHRENHEIT
  DWPT   - DEWPOINT IN FAHRENHEIT
  RH     - RELATIVE HUMIDITY IN PERCENT
  WIND   - DIRECTION AND SPEED IN MPH
  PRES   - MEAN SEA LEVEL PRESSURE IN INCHES OF HG
  WCI    - WIND CHILL INDEX
  VSB    - VISIBILITY IN MILES
  HX     - HEAT INDEX
  TC     - TEMPERATURE IN CELSIUS
  VRB    - VARIABLE WIND DIRECTION
  N/A    - NOT AVAILABLE




USA.gov is the U.S. government's official web portal to all federal, state and local government web resources and services.